To NAV CANADA Home Page Login to a new session Search on AWWS site Feedback and Comments Disclaimer Vers la page française équivalente Tips FAQ What's new on the site To the Forecasts and Observations / NOTAM section To "File a Flight Plan" website Publications and other links Update of the User's profile FIC Telephone Numbers My Weather Data Folder Route Weather Data Regional Weather Data Local Weather Data To the Forecasts and Observations / NOTAM section
Request Generated 07/25/2016 at 10:02:22 UTC . Weather information available at that time is displayed.

METAR/TAF

LA GRANDE-4/QC    (show WxCam)

METAR CYAH 251000Z AUTO 11008KT 9SM BKN140 OVC160 14/10 A2987 RMK
SLP122 DENSITY ALT 1100FT=
METAR CYAH 250900Z AUTO 02004KT 9SM FEW140 11/10 A2987 RMK SLP124=
METAR CYAH 250800Z AUTO 07004KT 9SM SCT190 BKN230 11/09 A2988 RMK
SLP126=

*** REMARK        : Forecast period has ended; this was the last TAF issued
*** REMARQUE : La période de prévision est échue; ceci était le dernier TAF qui a été émis
TAF CYAH 241738Z 2418/2421 VRB03KT P6SM SCT030 BKN220
RMK FCST BASED ON AUTO OBS. NXT FCST WILL BE ISSUED AT 251045Z=
Your time UTC time
Weather data provided by Environment Canada and NAV CANADA